Regional Weather Roundup
Issued by NWS Grand Forks, ND

Home | Current Version | Previous Version | Graphics & Text | Print | Product List | Glossary On
Versions: 1 2 3 4 5 6 7 8 9 10 11 12 13 14 15 16 17 18 19 20 21 22 23 24 25 26 27 28 29 30 31 32 33 34 35 36 37 38 39 40 41 42 43 44 45 46 47 48 49 50
000
ASUS43 KFGF 250231
RWRFGF
PRAIRIE TO PINES  WEATHER ROUNDUP
NATIONAL WEATHER SERVICE EASTERN NORTH DAKOTA/GRAND FORKS ND
900 PM CDT TUE MAY 24 2016

 **SATELLITE DATA USED TO AUGMENT SKY COVER AT AUTOMATED STATIONS**
 *****  WEATHER ACROSS EASTERN NORTH DAKOTA  *****

CITY           SKY/WX    TMP DP  RH WIND       PRES   REMARKS
GRAND FORKS    CLEAR     75  48  38 E3        29.86R
GRAND FRKS AFB CLEAR     73  48  41 E3        29.87R
GRAND FRKS NWS   N/A     66 N/A N/A E3          N/A
DEVILS LAKE    PTCLDY    72  51  47 SE3       29.87S
FARGO          CLEAR     76  39  26 NE9       29.84S
WAHPETON ARPT  CLEAR     73  45  35 NE7       29.84S
$$

 ***** WEATHER ACROSS CENTRAL AND WESTERN NORTH DAKOTA  *****

CITY           SKY/WX    TMP DP  RH WIND       PRES   REMARKS
BISMARCK       MOCLDY    71  45  39 E3        29.83S
MINOT          PTCLDY    71  43  36 W6        29.84S
JAMESTOWN      NOT AVBL
MINOT AFB      CLOUDY    69  43  39 NW6       29.84S
GARRISON         N/A     73  43  33 CALM      29.86R
WILLISTON      CLEAR     67  37  33 W7        29.85S
DICKINSON      MOCLDY    60  48  64 NE8       29.84S
HETTINGER      CLOUDY    63  45  51 N5        29.84S
$$

 *****  OTHER AIRPORT OBSERVATIONS IN OUR AREA  *****

CITY           SKY/WX    TMP DP  RH WIND       PRES   REMARKS
WALHALLA       FAIR      68  50  52 E6        29.88R
GRAFTON AIRPOR FAIR      68  61  77 SE7       29.88S
VALLEY CITY AR FAIR      68  55  64 E5        29.89R
CANDO          FAIR      66  46  48 N7        29.89S
CAVALIER APRT  FAIR      70  55  60 SE3       29.87R
GWINNER        FAIR      70  48  46 N12       29.85S
SHEYENNE NWR     N/A     73  49  41 NE5       29.95S
ROLLA          FAIR      64  41  42 N5        29.90R
 ***** THE ABOVE OBSERVATIONS ARE NON NWS ARE NOT QUALITY
       CONTROLLED AND MAY MIS-REPORT RAIN FOR SNOW...
$$

  *****  WEATHER ACROSS NORTHERN MINNESOTA  *****

CITY           SKY/WX    TMP DP  RH WIND       PRES   REMARKS
FLAG ISLAND    CLEAR     66  52  59 E5        29.92R
WARROAD        CLEAR     63  55  77 E7        29.92R
ROSEAU         CLEAR     64  52  63 E5        29.91R
HALLOCK        CLEAR     72  48  43 E8        29.87R
THF RVR FALLS  CLEAR     70  45  40 N3        29.91R
BAUDETTE       CLEAR     66  50  56 E7        29.91R
WASKISH        CLEAR     66  54  63 NE8       29.92R
CROOKSTON      CLEAR     72  48  43 E3        29.88S
STEPHEN NDAWN    N/A     73  48  40 SE2         N/A
GREENBUSH NDAW   N/A     66  52  59 NE3         N/A
$$
  *****  WEATHER ACROSS CENTRAL AND WEST MINNESOTA  *****

CITY           SKY/WX    TMP DP  RH WIND       PRES   REMARKS
FOSSTON        CLEAR     64  50  59 CALM      29.90S
BEMIDJI        CLEAR     66  44  45 CALM      29.91R
PARK RAPIDS    CLEAR     71  52  50 SE10      29.90R
ELBOW LAKE     FAIR      71  57  61 SE10      29.85S
WADENA         CLEAR     64  55  72 E6        29.89S
DETROIT LAKES  CLEAR     70  48  46 NE6       29.89S
MOORHEAD       CLEAR     72  45  37 NE7       29.86S
FERGUS FALLS   CLEAR     73  52  46 E6        29.82S
MORRIS MN      CLEAR     72  55  56 E8        29.84R
STAPLES        CLEAR     63  55  77 E3        29.91R
$$
  *****  WEATHER ELSEWHERE ACROSS MINNESOTA  *****

CITY           SKY/WX    TMP DP  RH WIND       PRES   REMARKS
DULUTH         CLOUDY    57  55  93 E10       29.96R FOG
INTRNTL FALLS  CLEAR     61  50  67 E8        29.94R
ELY            CLEAR     61  50  67 E5        29.99R HAZE
CLOQUET        CLOUDY    55  54  94 E6        29.97R FOG
WHEATON        CLEAR     73  52  46 CALM      29.83S
BRAINERD       CLEAR     62  57  83 E7        29.91F
HIBBING        CLOUDY    60  49  66 CALM      29.91R
ALEXANDRIA     CLEAR     68  54  60 E8        29.88F
SAINT CLOUD    CLEAR     69  58  67 NE5       29.88F
MINNEAPOLIS    CLOUDY    79  48  33 E9        29.88R
$$

  *****  WEATHER ACROSS SOUTH DAKOTA  *****

CITY           SKY/WX    TMP DP  RH WIND       PRES   REMARKS
SIOUX FALLS    PTCLDY    76  54  46 SE13      29.84R
BROOKINGS      CLOUDY    76  45  33 CALM      29.84S
WATERTOWN      PTCLDY    74  48  39 CALM      29.84S
HURON          CLEAR     72  52  49 MISG      29.80S
SISSETON         N/A     78  43  28 CALM      29.81S
ABERDEEN       CLEAR     74  44  34 NE5       29.81S
MITCHELL       MOCLDY    73  60  63 E7        29.79F
PIERRE         CLOUDY    69  51  52 NE6       29.76F
MOBRIDGE       CLOUDY    72  50  45 E10       29.78F
RAPID CITY     RAIN      56  48  74 SE38G52   29.74F
$$

  *****  SOME WEATHER IN NEARBY STATES *****

CITY           SKY/WX    TMP DP  RH WIND       PRES   REMARKS
GLASGOW MT     PTCLDY    60  41  49 NW5       29.86S
GREAT FALLS MT CLOUDY    57  37  47 CALM      29.88R
CHEYENNE WY    MOCLDY    55  43  63 S9        29.88R
SCOTTSBLUFF NE PTCLDY    59  48  67 SE10      29.81R
OMAHA NE       PTCLDY    74  60  61 E6        29.84F
DES MOINES IA  PTCLDY    76  60  57 S7        29.88F
DAVENPORT IA   CLOUDY    78  59  51 SW6       29.93R
CHICAGO IL     CLOUDY    78  52  40 S9        29.93R
EAU CLAIRE WI  PTCLDY    66  55  67 CALM      29.91R
LA CROSSE WI   CLEAR     74  59  59 E3        29.91R
$$

  *****  SOME NATIONAL WEATHER *****

CITY           SKY/WX    TMP DP  RH WIND       PRES   REMARKS
LA GUARDIA NY  CLOUDY    68  58  70 CALM      29.97R
RALEIGH NC     PTCLDY    69  55  60 SW3       30.13R
ATLANTA GA     CLEAR     75  53  46 CALM      30.15R
NEW ORLEANS LA PTCLDY    80  71  74 SE9       30.09R
OKLAHOMA CITY  CLOUDY    76  71  85 SE17G23   29.86F THUNDER
ALBUQUERQUE NM PTCLDY    79  10   7 SW15      29.93R
SALT LAKE CITY MOCLDY    62  36  37 CALM      29.89R
LOS ANGELES CA MOCLDY    61  52  72 W18       30.02S
BOISE ID       MOSUNNY   68  32  26 NW18      29.82R
SEATTLE WA     CLOUDY    65  47  52 VRB3      30.00S
$$

*** WEATHER ACROSS MANITOBA...SASKATCHEWAN AND ONTARIO ***
                ***ONTARIO***

CITY           SKY/WX    TMP DP  RH WIND       PRES   REMARKS
GERALDTON      CLOUDY    50  41  71 E6        30.07R
THUNDER BAY    MOCLDY    57  54  88 SE7       30.03R
SIOUX LOOKOUT  CLOUDY    54  54 100 E5        29.99R
TORONTO        MOCLDY    72  36  26 W6        29.97R
BIG TROUT LK   CLOUDY    48  37  66 E6        30.09R
PICKLE LAKE    CLOUDY    52  45  76 SE8       30.04S
DRYDEN         CLEAR     55  52  88 E5        29.97R
KENORA         PTCLDY    61  52  72 E8        29.95R
$$
                *** MANITOBA***

CITY           SKY/WX    TMP DP  RH WIND       PRES   REMARKS
BRANDON        PTCLDY    68  41  37 NW7       29.88R
DAUPHIN        CLEAR     57  52  82 NE8       29.91R
ISLAND LAKE    MOCLDY    50  43  76 E6        30.01F
PILOT MOUND      N/A     66  45  45 NW5         N/A
THE PAS        MOCLDY    54  43  66 CALM      29.95S
THOMPSON       MOCLDY    50  36  57 E3        30.01S
WINNIPEG       PTCLDY    63  50  63 E8        29.89S
LYNN LAKE      CLOUDY    55  39  54 S8        29.95S
CHURCHILL      CLOUDY    34  25  69 SE14      30.14S WCI  24
GILLAM         MOCLDY    45  30  57 E5        30.07S
$$
                ***SASKATCHEWAN***

CITY           SKY/WX    TMP DP  RH WIND       PRES   REMARKS
ESTEVAN        PTCLDY    66  37  34 SW7       29.85S
KINDERSLEY     PTCLDY    52  46  82 N9        29.86F
LLOYDMINSTER   MOSUNNY   55  45  67 SE12      29.87S
PRINCE ALBERT  CLOUDY    52  46  82 E9        29.91S
REGINA         PTCLDY    59  41  51 SW9       29.86
YORKTON        CLEAR     61  48  63 E13G18    29.85R
N. BATTLEFORD  MOCLDY    52  45  76 E7        29.91S
LA RONGE       NOT AVBL
SASKATOON      MOCLDY    52  52 100 N12       29.87
SWIFT CURRENT  LGT RAIN  48  45  87 W9        29.84R FOG
$$
NOTE: THESE ARE AUTOMATED STATIONS WITH LIMITED QUALITY CONTROL
      "FAIR" INDICATES FEW OR NO CLOUDS BELOW 12,000 FEET WITH NO
      SIGNIFICANT WEATHER AND/OR OBSTRUCTIONS TO VISIBILITY.
      SKY/WX - SKY CONDITION AND SIGNIFICANT WEATHER.
      TMP - AIR TEMPERATURE.    DP   - DEWPOINT TEMPERATURE.
      RH  - RELATIVE HUMIDITY.  PRES - PRESSURE.
      HX  - HEAT INDEX.         WCI  - WIND CHILL INDEX.
$




USA.gov is the U.S. government's official web portal to all federal, state and local government web resources and services.